Retour au catalogue

THOR ABLESTAR DEB

ActifLEO
NORAD 420·DEBRIS·🇺🇸 United States

Lancé Jun 29, 1961 depuis Cape Canaveral Space Force Station

Loading…

Prochains Passages (prochaines 24 heures)

TLE

FraisSource: Space-Track

Époque: Sep 14, 2026, 09:29 UTC

1 00420U 61015EV  26257.39558601  .00000737  00000-0  28266-3 0  9992
2 00420  66.8134  43.0872 0079400 145.6968 214.9299 14.34201324366374

Suivez THOR ABLESTAR DEB en temps réel avec AllMySat

Download on the App Store